Terminal Aerodrome Forecast
Issued by NWS Grand Forks, ND

Home | Current Version | Previous Version | Graphics & Text | Print | Product List | Glossary On
Versions: 1 2 3 4 5 6 7 8 9 10 11 12 13 14 15 16 17 18 19 20 21 22 23 24 25 26
000
FTUS43 KFGF 141408 AAB
TAFFAR
TAF AMD
KFAR 141408Z 1414/1512 29005KT P6SM OVC035
      TEMPO 1414/1416 BKN022
     FM141600 34007KT P6SM BKN020
     FM142000 33015G23KT P6SM OVC020
     FM150000 33009KT P6SM BKN030=

USA.gov is the U.S. government's official web portal to all federal, state and local government web resources and services.